Terminal Aerodrome Forecast
Issued by NWS Rapid City, SD

Home | Current Version | Previous Version | Graphics & Text | Print | Product List | Glossary On
Versions: 1 2 3 4 5 6 7 8 9 10 11 12 13 14 15 16
000
FTUS43 KUNR 260600 AAA
TAFRAP
TAF AMD
KRAP 260643Z 2607/2706 36015KT 3SM -SN SCT010 OVC025
     FM260900 02014KT P6SM OVC015
     FM261700 03014KT P6SM BKN250=

USA.gov is the U.S. government's official web portal to all federal, state and local government web resources and services.